Find Starlink 35520

NORAD ID: 66133 Int'l Des: 2025-237 Owner: SPXS Country: US Constellation: starlink operational
LEOCIRCULAR

Current View

Loading 3D Globe...

About Starlink 35520

Description loading...

Upcoming Passes

Passes for default location (London). Set your location on the main map for personalized predictions.

Altitude History

Loading altitude history...

Two-Line Element Set

1 66133U 25237V 26146.42261083 .00019003 00000-0 65218-3 0 9991
2 66133 53.1617 38.4245 0001569 97.8172 262.3007 15.30194110 34513
Epoch: May 26, 2026 • Age: 10 hours

Current Status

Altitude 480.4 km
Velocity 7.63 km/s
Sub-Earth Point 52.22°N, 41.6°W
Launch Date Oct 22, 2025
Age 0.5 years
Type internet

Technical Details

Classification Payload
Mass 575.00 kg
Dry Mass 530.00 kg
Total Mass 575.00 kg
Length 0.30 m
Diameter 4.10 m
Span 29.00 m
Shape Box + pan
Manufacturer SPXS
Bus Type Starlink V2MO
Phase Status In Orbit
Owner/State SPXS/US

Most Searched